Weather in Bol'shaya Bicha

Russia / Omsk Oblast     57°52′27″N   70°37′08″E
temp.,
°C
wind,
m/s
gust,
m/s
humid.,
%
clouds,
%
prec.,
mm/h
press.,
hPa
HPBL,
m
11 may, tue
tue1100:00+10ne11570 0.0 102610
03:00+9n22610 0.0 102611
06:00+8nne22700 0.0 102625
09:00+15nne23480 0.0 1026463
12:00+19nne23320 0.0 10261549
15:00+22nnw23253 0.0 10251955
18:00+22nnw242338 0.0 10242145
21:00+16wnw2241100 0.0 102414
12 may, wed
wed1200:00+14wnw234362 0.0 102452
03:00+12w255192 0.0 102378
06:00+12nw3106999 0.0 1023369
09:00+13nnw585972 0.0 1023768
12:00+16nnw5738100 0.0 10241305
15:00+17nnw5730100 0.0 10241735
18:00+17nnw582950 0.0 10241899
21:00+13nnw2249100 0.0 102416
13 may, thu
thu1300:00+13nw2454100 0.0 1023114
03:00+12wnw2670100 0.1 1023233
06:00+11w138297 0.3 1022103
09:00+14sw2569100 0.3 1021335
12:00+17nnw3966100 0.3 1020764
15:00+21nnw61054100 0.3 10201802
18:00+22nnw594344 0.4 10212269
21:00+16n38575 0.0 1023208
14 may, fri
fri1400:00+11nne39715 0.0 1025249
03:00+8ne22750 0.0 102617
06:00+8ese11740 0.0 102810
09:00+14ssw22485 0.0 1027467
12:00+20wsw343722 0.0 10251088
15:00+24w4733100 0.0 10232125
18:00+25w383493 0.0 10212226
21:00+20sw24535 0.1 101990
15 may, sat
sat1500:00+18w246352 0.3 101963
03:00+15w26685 0.0 1019112
06:00+15w257431 0.0 101987
09:00+21w3551100 0.1 1019399
12:00+26wsw4839100 0.3 10181253
15:00+28wnw51031100 0.0 10163055
18:00+27wnw4832100 0.0 10152219
21:00+19nnw71565100 0.9 1016589